Regional Weather Roundup
Issued by NWS Pendleton, OR

Home | Current Version | Previous Version | Text Only | Print | Product List | Glossary On
Versions: 1 2 3 4 5 6 7 8 9 10 11 12 13 14 15 16 17 18 19 20 21 22 23 24 25 26 27 28 29 30 31 32 33 34 35 36 37 38 39 40 41 42 43 44 45 46 47 48 49 50
000
ASUS46 KPDT 040425
RWRPDT
PENDLETON REGIONAL WEATHER ROUNDUP
NATIONAL WEATHER SERVICE PENDLETON OREGON
900 PM PDT THU SEP 3 2015

NOTE: FAIR INDICATES FEW OR NO CLOUDS BELOW 12,000 FEET WITH NO
SIGNIFICANT WEATHER AND/OR OBSTRUCTIONS TO VISIBILITY.

# INDICATES UNOFFICIAL STATION AND DATA

WAZ520-040510-
EAST SLOPES OF WASHINGTON CASCADES

CITY            SKY/WX      TMP DP  RH  WIND    PRES   REMARKS
#BULLFROG 2SW   N/A         48  39  71  S1      27.58S
#BUMPING DAM    N/A         46  N/A N/A CALM    N/A
#CLE ELUM HS    N/A         52  41  66  W6      29.92S
#CLE ELUM LAKE  N/A         48  38  68  CALM    29.92R
#CLIFFDEL 2NW   N/A         47  39  74  N2      N/A
#GLENWOOD       N/A         48  39  71  CALM    29.95R
#MANASTASH CYN  N/A         48  34  58  CALM    29.93R
#NELSON 3SW     N/A         46  40  79  CALM    30.14R
#NILE           N/A         51  39  63  CALM    29.22R
#RONALD 2NW     N/A         52  35  52  CALM    29.85R
#SNOWDEN        N/A         46  27  47  CALM    N/A
#TEANAWAY 4NE   N/A         52  41  66  CALM    N/A
#TROUT LAKE 1NE N/A         48  40  74  SW5     29.96R
$$

WAZ521-040510-
SIMCOE HIGHLANDS

CITY            SKY/WX      TMP DP  RH  WIND    PRES   REMARKS
#BICKLETON HS   N/A         49  24  37  W6      N/A
#CENTERVILLE 4W N/A         54  40  59  N7      29.69R
#CENTERVILLE 1SWN/A         53  38  57  CALM    29.90R
#GOLDENDALE     N/A         56  38  51  W7      N/A
#GOLDENDALE 1NE N/A         54  28  36  CALM    N/A
#GOLDENDALE 5WNWN/A         54  39  57  W10     29.91R
#GOODNOE HILLS  N/A         59  40  49  NW15G26 N/A
#LYLE 6NE       N/A         55  41  59  SW3     29.91R
$$

WAZ026-040510-
KITTITAS VALLEY

CITY            SKY/WX      TMP DP  RH  WIND    PRES   REMARKS
ELLENSBURG AP   PTCLDY      55  39  55  NW15    29.94R
#ELLENSBURG CWU N/A         54  40  59  N8      29.88R
#ELLENSBURG 3NE N/A         52  40  63  N6      29.93S
#ELLENSBURG 1E  N/A         54  37  52  NW1     N/A
#KITTITAS 4N    N/A         53  38  57  N6      29.93R
#KITTITAS 3S    N/A         52  42  69  W3      29.90R
#THORP 6N       N/A         51  40  66  W6      29.96R
$$

WAZ027-040510-
YAKIMA VALLEY

CITY            SKY/WX      TMP DP  RH  WIND    PRES   REMARKS
SUNNYSIDE AP    PTCLDY      54  39  57  SW7     29.89R
YAKIMA AIRPORT  PTCLDY      63  38  39  N12     29.92R
YAKIMA-VAGABOND CLEAR       57  38  49  N3      29.93R
#DONALD 2NE     N/A         58  30  34  N5      28.76R
#GRANDVIEW      N/A         57  37  47  CALM    29.89R
#MABTON         N/A         58  41  53  SW6     29.87R
#MOXEE 2E       N/A         58  28  32  N3      29.89R
#NACHES 2SW     N/A         55  42  61  W9      29.92R
#OUTLOOK DOT    N/A         N/A N/A N/A N9      N/A
#SELAH 8E       N/A         54  37  52  N7      N/A
#TERRACE HTS    N/A         57  39  51  N3      29.85R
#TOPPENISH      N/A         61  41  48  N1      29.82R
#WAPATO 4NE     N/A         58  30  34  N5      28.76R
#W YAKIMA       N/A         58  40  51  N2      29.90R
#WHITE SWAN 5E  N/A         62  40  44  W9      29.90R
#WILEY CITY 3W  N/A         54  33  45  CALM    29.89R
$$

WAZ028-040510-
LOWER COLUMBIA BASIN...WASHINGTON

CITY            SKY/WX      TMP DP  RH  WIND    PRES   REMARKS
PASCO           CLEAR       63  39  41  E3      29.89R
#BENTON CITY    N/A         64  32  30  S2      29.77S
#CONNELL 5N     N/A         58  30  34  CALM    29.88R
#CONNELL 5NW    N/A         59  33  37  CALM    29.85R
#ELTOPIA 6NW    N/A         61  41  48  CALM    28.87
#KAHLOTUS       N/A         61  29  30  CALM    29.88R
#KENNEWICK      N/A         48  39  71  S1      27.58S
#KENNEWICK 3S   N/A         60  33  36  N1      29.88R
#PASCO-BROADMOORN/A         62  35  36  CALM    29.77R
#PATERSON       N/A         61  40  46  W1      29.86R
#PROSSER        N/A         63  29  28  S7      29.86R
#SAGEMOOR 2W    N/A         57  45  64  CALM    29.73R
#TOUCHET 2S     N/A         49  34  56  CALM    29.86R
#WEST PASCO     N/A         60  37  42  CALM    29.83R
$$

WAZ029-040510-
FOOTHILLS OF THE BLUES...WASHINGTON

CITY            SKY/WX      TMP DP  RH  WIND    PRES   REMARKS
WALLA WALLA AP  CLEAR       56  36  47  E7      29.91R
#DAYTON SCHOOL  N/A         52  28  39  N2      29.93R
#LOWDEN 2SE     N/A         53  39  59  CALM    29.86R
#PLEASANT VIEW 1N/A         58  28  32  CALM    29.92R
#PRESCOTT       N/A         49  35  58  CALM    29.88R
#SUDBURY        N/A         48  N/A N/A CALM    N/A
#WHITMAN COLLEGEN/A         60  36  41  E3      29.93R
#WAITSBURG 5S   N/A         55  30  38  CALM    29.98R
#WAITSBURG 8N   N/A         42   7  23  CALM    29.76R
#WALLA WALLA U  N/A         62  40  44  CALM    29.87R
#WHITMAN MISSIONN/A         54  43  66  CALM    29.89R
$$

WAZ030-040510-
BLUE MOUNTAINS...WASHINGTON

CITY            SKY/WX      TMP DP  RH  WIND    PRES   REMARKS
#DIXIE 5SE      N/A         52  31  44  E2      29.87S
#SKI BLUEWOOD   N/A         39  31  73  CALM    29.96R
$$

ORZ009-041-WAZ024-040510-
COLUMBIA RIVER GORGE

CITY            SKY/WX      TMP DP  RH  WIND    PRES   REMARKS
THE DALLES AP   PTCLDY      62  42  48  W12     29.94R
#ARLINGTON AIRPON/A         60  40  47  W17     29.83S
#CELILO DOT     N/A         63  44  50  SW8     N/A
#MOSIER 1S      N/A         57  37  47  NW6     29.96S
#RUFUS DOT      N/A         65  44  46  N22     N/A

$$

ORZ510-040510-
NORTH CENTRAL OREGON

CITY            SKY/WX      TMP DP  RH  WIND    PRES   REMARKS
#CHENOWITH 1W   N/A         53  43  69  W30     N/A
#DUFUR 9E       N/A         51  41  68  W7      29.98R
#GRASS VALLEY 1SN/A         50  39  66  NW7     29.97R
#KENT DOT       N/A         49  32  52  N5      N/A
#MAUPIN SCHOOL  N/A         59  42  53  W3      29.96R
#MORO SCHOOL    N/A         54  46  74  W13     29.96R
#SHANIKO 5WSW   N/A         50  33  52  NW10    N/A
#SHANIKO 4NW    N/A         47  36  65  NW10    29.96S
#TYGH VALLEY 2NEN/A         58  40  51  N6      29.92R
#WAPANITIA AIRPON/A         53  39  59  W3      29.94R
#WASCO DOT      N/A         57  41  55  W8      N/A
#WASCO AIRPORT  N/A         55  38  53  W12     N/A
#WASCO 5NE      N/A         56  40  55  W8      29.91R
$$

ORZ511-040510-
CENTRAL OREGON

CITY            SKY/WX      TMP DP  RH  WIND    PRES   REMARKS
BEND AIRPORT    PTCLDY      48  36  63  CALM    29.97R
PRINEVILLE AP   CLEAR       52  34  50  N10     29.95R
REDMOND AIRPORT CLEAR       51  34  52  N7      29.96R
#BEND 1SW       N/A         46  34  63  CALM    N/A
#BEND-AWBREY    N/A         49  38  66  CALM    29.92R
#BEND-KIM LN    N/A         49  38  66  CALM    29.94R
#CULVER         N/A         50  37  61  CALM    29.92R
#LAKE BILLY CHINN/A         53  13  20  E3      30.02R
#MADRAS         N/A         53  38  57  N9      N/A
#POWELL BUTTE 3EN/A         49  33  54  W6      N/A
#POWELL BUTTE   N/A         49  33  54  W2      29.59R
#PRINEVILLE 3N  N/A         49  38  66  W3      29.88R
#WARM SPRINGS   N/A         57  41  55  SW7     29.92R

$$


ORZ509-040510-
EAST SLOPES OF OREGON CASCADES

CITY            SKY/WX      TMP DP  RH  WIND    PRES   REMARKS
#BLUE BOX PASS  N/A         43  -8  11  NW2     N/A
#CAMP SHERMAN   N/A         45  35  68  CALM    29.99F
#LA PINE 4NW    N/A         43  32  65  CALM    29.99R
#LAVA BUTTE DOT N/A         46  28  49  CALM    N/A
#SISTERS AIRPOR N/A         50  44  80  N2      30.17S
#SISTERS 1NW    N/A         50  37  61  NE6     N/A
#SISTERS 3N     N/A         50  34  54  CALM    29.99S
#SUNRIVER       N/A         45  34  65  CALM    29.83R
#TUMALO 3W      N/A         47  36  65  NW2     29.82R

$$

ORZ044-040510-
LOWER COLUMBIA BASIN...OREGON

CITY            SKY/WX      TMP DP  RH  WIND    PRES   REMARKS
HERMISTON       CLEAR       59  32  36  SW6     29.89R
#BOARDMAN SCHOOLN/A         62  39  43  S6      29.89R
#BOARDMAN 8SW   N/A         59  42  53  W3      29.88
#ECHO 8SW       N/A         52  32  46  SW3     29.91R
#IONE SCHOOL    N/A         59  38  45  SW6     29.89R
#IRRIGON 4NW    N/A         56  42  59  S3      N/A
#UMATILLA SCHOOLN/A         59  42  53  CALM    29.92S
#UMATILLA       N/A         64  34  33  CALM    29.80R
$$

ORZ507-040510-
NORTHERN FOOTHILLS OF THE BLUES

CITY            SKY/WX      TMP DP  RH  WIND    PRES   REMARKS
PENDLETON AIRPT CLEAR       59  22  24  CALM    29.91R
#ADAMS 3WNW     N/A         47  21  35  CALM    29.89R
#ATHENA         N/A         51  29  42  CALM    29.91R
#CAYUSE         N/A         54  31  41  E6      29.88R
#HELIX SCHOOL   N/A         50  25  37  CALM    29.89R
#HELIX 3N       N/A         52  24  33  CALM    29.90R
#HOLDMAN 5SE    N/A         51  23  33  CALM    29.92R
#HOLDMAN 6E     N/A         56  25  30  CALM    29.70R
#M-F GROVE ELEM N/A         54  29  38  CALM    29.90R
#M-FREEWATER 5SEN/A         52  36  54  CALM    29.92R
#PENDLETON DNTN N/A         57  25  29  CALM    29.93S
#PDT AQUATIC CTRN/A         56  26  31  CALM    29.88S
#PDT SUNRIDGE   N/A         53  28  38  CALM    29.92R
#PENDLETON 7NW  N/A         53  27  36  CALM    32.42S
#PILOT ROCK     N/A         49  26  40  S1      29.95R
#TUTUILLA       N/A         52  32  46  CALM    29.89R
#UMAPINE 2E     N/A         49  39  68  CALM    29.87R
#WESTON SCHOOL  N/A         52  24  33  NW1     29.84R

$$

ORZ508-040510-
SOUTHERN FOOTHILLS OF THE BLUES

CITY            SKY/WX      TMP DP  RH  WIND    PRES   REMARKS
#AJAX           N/A         53  34  48  W7      29.89R
#CONDON 5W      N/A         47  36  65  NW9     29.93R
#FOSSIL SCHOOL  N/A         66  51  58  CALM    29.94S
#HEPPNER EOC    N/A         56  33  42  W1      29.85R
#HEPPNER 4NE    N/A         52  32  46  W5      29.91R
#LEXINGTON 2SE  N/A         50  34  54  CALM    29.90R
#OLEX 4N        N/A         57  39  51  SW13    29.91R
#RUGGS 5NE      N/A         51  29  42  W6      30.14R
#RUGGS 2SW      N/A         50  31  48  W6      29.93R

$$

ORZ502-503-040510-
BLUE MOUNTAINS

CITY            SKY/WX      TMP DP  RH  WIND    PRES   REMARKS
MEACHAM         CLEAR       41  29  62  CALM    29.97R
#BATTLE MTN DOT N/A         47  33  58  N2      N/A
#HEPPNER 15SE   N/A         41  30  65  CALM    29.87R
#LONG CREEK HS  N/A         46  31  56  CALM    29.90R
#N POWDER DOT   N/A         48  34  58  NW6     N/A
#PIKES PEAK     N/A         54  26  34  S9      27.99S
#TOLLGATE       N/A         38  29  70  CALM    29.85R
#TROY SCHOOL    N/A         57  44  62  CALM    29.74S
#UKIAH          N/A         44  32  62  CALM    29.95R
#WESTON 4E      N/A         52  27  38  CALM    29.86R
$$

ORZ505-040510-
JOHN DAY BASIN

CITY            SKY/WX      TMP DP  RH  WIND    PRES   REMARKS
JOHN DAY        CLEAR       54  28  36  CALM    29.94S
#JOHN DAY KJDY  N/A         54  48  80  CALM    30.12R
#DAYVILLE SCHOOLN/A         55  24  30  CALM    29.90R
#MITCHELL       N/A         49  31  50  CALM    30.11R
#MITCHELL 8NW   N/A         53  30  41  W1      30.10R
#MONUMENT HS    N/A         57  27  31  CALM    29.92R
#MT. VERNON 5SE N/A         49  29  46  CALM    29.90R
#SPRAY SCHOOL   N/A         59  N/A N/A CALM    N/A
$$

ORZ506-040510-
OCHOCO AND JOHN DAY HIGHLANDS

CITY            SKY/WX      TMP DP  RH  WIND    PRES   REMARKS
#PAULINA SCHOOL N/A         63  25  23  CALM    29.90
#PINE MTN OBS   N/A         38  30  73  N9      N/A
#PRAIRIE CITY   N/A         46  32  58  CALM    29.98R
#SENECA         N/A         46  N/A N/A CALM    N/A
#SENECA 9NW     N/A         43  29  57  CALM    29.86R
$$

ORZ049-040510-
GRANDE RONDE VALLEY

CITY            SKY/WX      TMP DP  RH  WIND    PRES   REMARKS
LA GRANDE       CLEAR       46  25  43  NE5     29.94R
#COVE           N/A         48  38  68  N1      29.96R
#COVE SCHOOL    N/A         48  36  63  CALM    29.96R
#ELGIN 3N       N/A         50  28  42  CALM    29.93R
#ELGIN 1E       N/A         52  32  46  CALM    N/A
#ISLAND CITY 4N N/A         54  51  90  CALM    30.01R
#LADD CYN DOT   N/A         52  33  48  SE6     N/A
#LA GRANDE ELEM N/A         56  30  37  W2      29.96R
#UNION 1S       N/A         49  36  61  CALM    29.80R
$$

ORZ050-040510-
WALLOWA COUNTY

CITY            SKY/WX      TMP DP  RH  WIND    PRES   REMARKS
#ENTERPRISE HS  N/A         49  42  77  CALM    29.98R
#IMNAHA SCHOOL  N/A         58  47  67  VRB1    29.94R
#IMNAHA 10S     N/A         52  44  74  CALM    29.95R
#JOSEPH 3N      N/A         46  37  71  CALM    29.99R
#JOSEPH 3W      N/A         42  40  93  SW1     29.83R
#LOSTINE        N/A         46  39  76  CALM    29.72R
#MT HOWARD 8000 N/A         33  31  92  CALM    30.02R
#PROMISE 1S     N/A         46  39  76  CALM    30.04R
#WALLOWA SCHOOL N/A         53  41  64  CALM    29.92R



$$



USA.gov is the U.S. government's official web portal to all federal, state and local government web resources and services.